Jonesboro, AR

8:06 AM CST on February 21, 2018 (GMT -0600)
Jonesboro Municipal

Weather History for KJBR - April, 2013

Change the Weather History Date:

Thursday, April 4, 2013

  Actual Average Record
Temperature  
Mean Temperature 45 °F 56 °F  
Max Temperature 50 °F 67 °F 87 °F (1893)
Min Temperature 39 °F 46 °F 29 °F (1987)
Degree Days  
Heating Degree Days 20 10  
Month to date heating degree days 71 40  
Since 1 July heating degree days 3314 3460  
Cooling Degree Days 0 1  
Month to date cooling degree days 0 4  
Year to date cooling degree days 0 10  
Moisture  
Dew Point 36 °F    
Average Humidity 71    
Maximum Humidity 96    
Minimum Humidity 45    
Precipitation  
Precipitation 0.03 in 0.14 in 3.10 in (1957)
Month to date precipitation 0.04 0.61  
Year to date precipitation 11.92 12.26  
Snow  
Snow 0.00 in - - ()
Month to date snowfall 0.0  
Snow Depth 0.00 in    
Sea Level Pressure  
Sea Level Pressure 30.07 in    
Wind  
Wind Speed 8 mph (NE)    
Max Wind Speed 16 mph    
Max Gust Speed 35 mph    
Visibility 9 miles    
Events Rain    
T = Trace of Precipitation, MM = Missing Value Source: NWS Daily Summary

Daily Weather History Graph

Daily Weather History Graph

Search for Another Location

Airport or City:

Trip Planner

Search our weather history database for the weather conditions in past years. The results will help you decide how hot, cold, wet, or windy it might be!

Date:

Astronomy

Apr. 04, 2013 Rise Set
Actual Time 6:44 AM CDT 7:27 PM CDT
Civil Twilight 6:18 AM CDT 7:53 PM CDT
Nautical Twilight 5:48 AM CDT 8:23 PM CDT
Astronomical Twilight 5:16 AM CDT 8:54 PM CDT
Moon 3:00 AM CDT (4/4) 1:55 PM CDT (4/4)
Length of Visible Light 13h 34m
Length of Day
12h 42m
Waning Crescent, 33% of the Moon is Illuminated
Apr 4
Waning Crescent
Apr 10
New
Apr 18
First Quarter
Apr 25
Full
May 2
Last Quarter

Hourly Weather History & Observations

Time (CDT) Temp. Windchill Dew Point Humidity Pressure Visibility Wind Dir Wind Speed Gust Speed Precip Events Conditions
12:53 AM 46.9 °F - 30.0 °F 52% 30.16 in 10.0 mi NNE 10.4 mph - 0.00 in   Overcast
1:53 AM 46.0 °F 41.9 °F 30.9 °F 56% 30.13 in 10.0 mi NE 8.1 mph - 0.00 in Rain Light Rain
2:53 AM 46.0 °F 41.9 °F 30.0 °F 54% 30.11 in 10.0 mi NNE 8.1 mph - N/A   Overcast
3:53 AM 46.0 °F 41.4 °F 28.0 °F 50% 30.09 in 10.0 mi NNE 9.2 mph - N/A   Overcast
4:53 AM 46.0 °F 41.0 °F 28.0 °F 50% 30.08 in 10.0 mi NNE 10.4 mph - N/A   Overcast
5:53 AM 46.0 °F 41.0 °F 27.0 °F 47% 30.07 in 10.0 mi NE 10.4 mph - N/A   Overcast
6:53 AM 45.0 °F 38.9 °F 27.0 °F 49% 30.08 in 10.0 mi NE 12.7 mph - N/A   Overcast
7:53 AM 45.0 °F 37.1 °F 28.9 °F 53% 30.09 in 10.0 mi NE 19.6 mph 39.1 mph N/A   Overcast
8:53 AM 44.1 °F 39.0 °F 32.0 °F 63% 30.09 in 10.0 mi NE 9.2 mph - 0.00 in Rain Light Rain
9:53 AM 43.0 °F 37.7 °F 34.0 °F 71% 30.10 in 10.0 mi NE 9.2 mph - 0.01 in Rain Light Rain
10:53 AM 44.1 °F 37.7 °F 35.1 °F 71% 30.10 in 10.0 mi NE 12.7 mph - 0.00 in   Overcast
11:53 AM 45.0 °F 40.1 °F 36.0 °F 71% 30.10 in 9.0 mi NE 9.2 mph - 0.01 in Rain Light Rain
12:53 PM 46.9 °F - 37.9 °F 71% 30.06 in 10.0 mi NNE 8.1 mph - 0.00 in   Overcast
1:53 PM 48.9 °F - 39.9 °F 71% 30.04 in 10.0 mi ENE 11.5 mph - N/A   Overcast
2:53 PM 48.9 °F - 39.9 °F 71% 30.03 in 10.0 mi NE 10.4 mph - N/A   Overcast
3:53 PM 48.0 °F - 43.0 °F 83% 30.02 in 7.0 mi NE 8.1 mph - 0.01 in Rain Light Rain
4:53 PM 48.9 °F - 43.0 °F 80% 30.02 in 10.0 mi NNE 3.5 mph - 0.00 in Rain Light Rain
5:53 PM 48.9 °F - 43.0 °F 80% 30.04 in 10.0 mi NE 4.6 mph - 0.00 in Rain Light Rain
6:53 PM 50.0 °F - 43.0 °F 77% 30.04 in 10.0 mi NE 6.9 mph - 0.00 in   Overcast
7:08 PM 50.0 °F - 42.8 °F 76% 30.04 in 10.0 mi NE 4.6 mph - N/A   Overcast
7:53 PM 48.9 °F - 43.0 °F 80% 30.04 in 10.0 mi NE 5.8 mph - N/A   Overcast
8:53 PM 48.0 °F - 44.1 °F 86% 30.04 in 10.0 mi East 3.5 mph - N/A   Mostly Cloudy
9:53 PM 44.1 °F - 42.1 °F 93% 30.06 in 8.0 mi Calm Calm - N/A   Mostly Cloudy
10:53 PM 43.0 °F 41.3 °F 41.0 °F 93% 30.06 in 5.0 mi WNW 3.5 mph - N/A   Clear
11:53 PM 41.0 °F - 39.0 °F 93% 30.08 in 6.0 mi Calm Calm - N/A   Clear